Louisville Bowman, KY

2:28 PM EDT on May 24, 2017 (GMT -0400)
Bowman

Weather History for KLOU - January, 2010

Change the Weather History Date:

Monday, January 4, 2010

  Actual Average Record
Temperature  
Mean Temperature 22 °F 35 °F  
Max Temperature 26 °F 43 °F 69 °F (1997)
Min Temperature 18 °F 27 °F 1 °F (1959)
Degree Days  
Heating Degree Days 43 30  
Month to date heating degree days 177 120  
Since 1 July heating degree days 1816 1784  
Cooling Degree Days 0 0  
Month to date cooling degree days 0 0  
Year to date cooling degree days 0 0  
Moisture  
Dew Point 10 °F    
Average Humidity 63    
Maximum Humidity 80    
Minimum Humidity 46    
Precipitation  
Precipitation T in 0.13 in 1.54 in (1952)
Month to date precipitation T 0.52  
Year to date precipitation T 0.52  
Sea Level Pressure  
Sea Level Pressure 30.28 in    
Wind  
Wind Speed 10 mph (WNW)    
Max Wind Speed 16 mph    
Max Gust Speed 21 mph    
Visibility 10 miles    
Events Snow    
T = Trace of Precipitation, MM = Missing Value Source: NWS Daily Summary

Daily Weather History Graph

Daily Weather History Graph

Search for Another Location

Airport or City:

Trip Planner

Search our weather history database for the weather conditions in past years. The results will help you decide how hot, cold, wet, or windy it might be!

Date:

Astronomy

Jan. 04, 2010 Rise Set
Actual Time 7:59 AM EST 5:35 PM EST
Civil Twilight 7:30 AM EST 6:05 PM EST
Nautical Twilight 6:57 AM EST 6:38 PM EST
Astronomical Twilight 6:25 AM EST 7:10 PM EST
Moon 10:36 PM EST (1/4) 10:34 AM EST (1/4)
Length of Visible Light 10h 34m
Length of Day
9h 36m
Waning Gibbous, 79% of the Moon is Illuminated
Jan 4
Waning Gibbous
Jan 7
Last Quarter
Jan 15
New
Jan 23
First Quarter
Jan 30
Full

Hourly Weather History & Observations

Time (EST) Temp. Windchill Dew Point Humidity Pressure Visibility Wind Dir Wind Speed Gust Speed Precip Events Conditions
12:13 AM 19.4 °F 9.5 °F 10.4 °F 68% 30.31 in 10.0 mi NW 8.1 mph - N/A   Overcast
12:53 AM 19.9 °F 10.1 °F 10.9 °F 68% 30.32 in 10.0 mi WNW 8.1 mph - N/A   Overcast
1:04 AM 19.4 °F 9.5 °F 10.4 °F 68% 30.30 in 10.0 mi WNW 8.1 mph - N/A   Overcast
1:53 AM 19.0 °F 7.5 °F 10.0 °F 68% 30.32 in 10.0 mi WNW 10.4 mph - N/A   Overcast
2:07 AM 19.4 °F 8.6 °F 10.4 °F 68% 30.29 in 10.0 mi NW 9.2 mph - N/A   Overcast
2:53 AM 19.0 °F 6.1 °F 10.0 °F 68% 30.31 in 10.0 mi WNW 12.7 mph - N/A   Overcast
3:53 AM 18.0 °F 9.8 °F 10.0 °F 71% 30.31 in 9.0 mi WNW 5.8 mph - N/A   Overcast
4:53 AM 18.0 °F 6.9 °F 12.0 °F 78% 30.30 in 6.0 mi WNW 9.2 mph - 0.00 in Snow Light Snow
5:53 AM 18.0 °F 8.7 °F 12.0 °F 78% 30.30 in 9.0 mi NW 6.9 mph - 0.00 in   Overcast
6:53 AM 18.0 °F 9.8 °F 12.0 °F 78% 30.30 in 10.0 mi WNW 5.8 mph - 0.00 in   Overcast
7:53 AM 19.0 °F 8.2 °F 10.9 °F 71% 30.30 in 10.0 mi WNW 9.2 mph - N/A   Overcast
8:53 AM 18.0 °F 11.1 °F 10.9 °F 74% 30.31 in 10.0 mi WNW 4.6 mph - N/A   Scattered Clouds
9:53 AM 18.0 °F 7.7 °F 10.0 °F 71% 30.31 in 10.0 mi NW 8.1 mph - N/A   Clear
10:53 AM 19.9 °F 7.3 °F 9.0 °F 62% 30.31 in 10.0 mi WNW 12.7 mph - N/A   Clear
11:53 AM 21.0 °F 8.6 °F 8.1 °F 57% 30.29 in 10.0 mi NW 12.7 mph - N/A   Clear
12:53 PM 23.0 °F 11.7 °F 10.0 °F 58% 30.26 in 10.0 mi West 11.5 mph 17.3 mph N/A   Clear
1:53 PM 24.1 °F 12.0 °F 10.0 °F 55% 30.24 in 10.0 mi WNW 13.8 mph - N/A   Clear
2:53 PM 26.1 °F 17.6 °F 10.9 °F 53% 30.23 in 10.0 mi WNW 8.1 mph - N/A   Overcast
3:53 PM 26.1 °F 16.8 °F 9.0 °F 49% 30.23 in 10.0 mi WNW 9.2 mph - N/A   Overcast
4:53 PM 25.0 °F 14.8 °F 9.0 °F 51% 30.23 in 10.0 mi West 10.4 mph - N/A   Partly Cloudy
5:53 PM 23.0 °F 12.4 °F 9.0 °F 55% 30.24 in 10.0 mi West 10.4 mph - N/A   Mostly Cloudy
6:53 PM 21.9 °F 9.2 °F 10.0 °F 60% 30.24 in 10.0 mi West 13.8 mph - N/A   Overcast
7:53 PM 21.0 °F 12.4 °F 10.0 °F 63% 30.25 in 10.0 mi WNW 6.9 mph - N/A   Scattered Clouds
8:53 PM 19.9 °F 9.3 °F 10.0 °F 65% 30.26 in 10.0 mi WNW 9.2 mph - N/A   Overcast
9:53 PM 19.9 °F 6.7 °F 10.9 °F 68% 30.26 in 10.0 mi West 13.8 mph - N/A   Overcast
10:53 PM 19.9 °F 9.3 °F 10.9 °F 68% 30.25 in 10.0 mi WNW 9.2 mph - N/A   Overcast
11:53 PM 19.0 °F 6.8 °F 10.9 °F 71% 30.25 in 10.0 mi WNW 11.5 mph - N/A   Overcast